Smyrna, TN

8:47 PM CDT on July 22, 2017 (GMT -0500)
Smyrna

Weather History for KMQY - May, 2013

Change the Weather History Date:

Saturday, May 25, 2013

  Actual Average Record
Temperature  
Mean Temperature 60 °F -  
Max Temperature 77 °F 76 °F 95 °F (2012)
Min Temperature 44 °F 60 °F 44 °F (2013)
Degree Days  
Heating Degree Days 4    
Growing Degree Days 10 (Base 50)    
Moisture  
Dew Point 46 °F    
Average Humidity 68    
Maximum Humidity 100    
Minimum Humidity 23    
Precipitation  
Precipitation 0.00 in - - ()
Sea Level Pressure  
Sea Level Pressure 30.31 in    
Wind  
Wind Speed 2 mph (ENE)    
Max Wind Speed 9 mph    
Max Gust Speed -    
Visibility 8 miles    
Events Fog    
Averages and records for this station are not official NWS values.
T = Trace of Precipitation, MM = Missing Value Source: NWS Daily Summary

Daily Weather History Graph

Daily Weather History Graph

Search for Another Location

Airport or City:

Trip Planner

Search our weather history database for the weather conditions in past years. The results will help you decide how hot, cold, wet, or windy it might be!

Date:

Astronomy

May. 25, 2013 Rise Set
Actual Time 5:33 AM CDT 7:52 PM CDT
Civil Twilight 5:04 AM CDT 8:22 PM CDT
Nautical Twilight 4:28 AM CDT 8:58 PM CDT
Astronomical Twilight 3:49 AM CDT 9:37 PM CDT
Moon 8:40 PM CDT (5/25) 5:59 AM CDT (5/25)
Length of Visible Light 15h 17m
Length of Day
14h 19m
Full, 100% of the Moon is Illuminated
May 25
Full
May 31
Last Quarter
Jun 8
New
Jun 16
First Quarter
Jun 23
Full

Hourly Weather History & Observations

Time (CDT) Temp. Windchill Dew Point Humidity Pressure Visibility Wind Dir Wind Speed Gust Speed Precip Events Conditions
12:56 AM 50.9 °F - 46.9 °F 86% 30.33 in 10.0 mi Calm Calm - N/A   Clear
1:56 AM 50.9 °F - 48.9 °F 93% 30.32 in 10.0 mi ESE 3.5 mph - N/A   Clear
2:56 AM 50.0 °F - 48.9 °F 96% 30.33 in 10.0 mi Calm Calm - N/A   Clear
3:56 AM 48.9 °F - 46.9 °F 93% 30.34 in 10.0 mi Calm Calm - N/A   Clear
4:56 AM 46.9 °F - 45.9 °F 96% 30.34 in 10.0 mi Calm Calm - N/A   Clear
5:27 AM 44.6 °F - 44.6 °F 100% 30.32 in 1.0 mi Calm Calm - N/A   Clear
5:29 AM 44.6 °F - 44.6 °F 100% 30.31 in 0.5 mi Calm Calm - N/A Fog Fog
5:38 AM 46.4 °F 45.2 °F 46.4 °F 100% 30.32 in 1.0 mi South 3.5 mph - N/A   Clear
5:40 AM 46.4 °F 45.2 °F 46.4 °F 100% 30.32 in 2.0 mi South 3.5 mph - N/A   Clear
5:47 AM 46.4 °F 45.2 °F 46.4 °F 100% 30.32 in 5.0 mi SSW 3.5 mph - N/A   Clear
5:56 AM 45.9 °F - 45.9 °F 100% 30.35 in 4.0 mi Calm Calm - N/A   Clear
6:56 AM 50.9 °F - 48.9 °F 93% 30.35 in 10.0 mi Calm Calm - N/A   Clear
7:56 AM 56.8 °F - 48.9 °F 75% 30.36 in 10.0 mi Variable 3.5 mph - N/A   Clear
8:56 AM 61.9 °F - 48.9 °F 62% 30.38 in 10.0 mi Variable 5.8 mph - N/A   Clear
9:56 AM 65.8 °F - 47.8 °F 52% 30.38 in 10.0 mi Variable 4.6 mph - N/A   Clear
10:56 AM 68.9 °F - 50.0 °F 51% 30.37 in 10.0 mi Variable 3.5 mph - N/A   Clear
11:56 AM 70.9 °F - 48.9 °F 46% 30.35 in 10.0 mi WNW 3.5 mph - N/A   Clear
12:56 PM 73.9 °F - 43.9 °F 34% 30.34 in 10.0 mi Variable 4.6 mph - N/A   Clear
1:56 PM 75.9 °F - 43.9 °F 32% 30.33 in 10.0 mi North 6.9 mph - N/A   Clear
2:56 PM 77.9 °F - 45.0 °F 31% 30.31 in 10.0 mi NNE 6.9 mph - N/A   Clear
3:56 PM 77.9 °F - 45.0 °F 31% 30.30 in 10.0 mi North 9.2 mph - N/A   Clear
4:56 PM 77.9 °F - 41.9 °F 28% 30.28 in 10.0 mi North 8.1 mph - N/A   Clear
5:56 PM 75.9 °F - 36.0 °F 23% 30.27 in 10.0 mi North 4.6 mph - N/A   Clear
6:56 PM 74.8 °F - 41.0 °F 30% 30.25 in 10.0 mi ENE 5.8 mph - N/A   Clear
7:56 PM 66.9 °F - 45.0 °F 45% 30.20 in 10.0 mi SSE 6.9 mph - N/A   Clear
8:56 PM 61.0 °F - 47.8 °F 62% 30.22 in 10.0 mi Calm Calm - N/A   Clear
9:56 PM 59.0 °F - 47.8 °F 66% 30.24 in 10.0 mi Calm Calm - N/A   Clear
10:56 PM 57.9 °F - 47.8 °F 69% 30.24 in 10.0 mi ESE 3.5 mph - N/A   Clear
11:56 PM 55.9 °F - 48.9 °F 77% 30.25 in 10.0 mi Calm Calm - N/A   Clear